Afton Municipal Airport, WY

3:06 PM MST on November 13, 2019 (GMT -0700)
Afton Municipal

Weather History for KAFO - September, 2019

Change the Weather History Date:

Wednesday, September 18, 2019

  Actual Average Record
Temperature  
Mean Temperature 48 °F -  
Max Temperature 69 °F 70 °F 82 °F (2014)
Min Temperature 28 °F 32 °F 32 °F (2015)
Degree Days  
Heating Degree Days 16    
Moisture  
Dew Point 31 °F    
Average Humidity 64    
Maximum Humidity 100    
Minimum Humidity 23    
Precipitation  
Precipitation 0.00 in - - ()
Sea Level Pressure  
Sea Level Pressure 30.05 in    
Wind  
Wind Speed 2 mph ()    
Max Wind Speed 16 mph    
Max Gust Speed 23 mph    
Visibility 10.0 miles    
Events      
Averages and records for this station are not official NWS values.
T = Trace of Precipitation, MM = Missing Value Source: Averaged Metar Reports

Daily Weather History Graph

Daily Weather History Graph

Search for Another Location

Airport or City:

Astronomy

Sep. 18, 2019 Rise Set
Actual Time 7:06 AM MDT 7:28 PM MDT
Civil Twilight 6:38 AM MDT 7:56 PM MDT
Nautical Twilight 6:05 AM MDT 8:29 PM MDT
Astronomical Twilight 5:30 AM MDT 9:03 PM MDT
Moon 9:58 PM MDT (9/18) 11:18 AM MDT (9/18)
Length of Visible Light 13h 18m
Length of Day
12h 21m
Waning Gibbous, 82% of the Moon is Illuminated
Sep 18
Waning Gibbous
Sep 21
Last Quarter
Sep 28
New
Oct 5
First Quarter
Oct 13
Full

Hourly Weather History & Observations

Time (MDT) Temp. Windchill Dew Point Humidity Pressure Visibility Wind Dir Wind Speed Gust Speed Precip Events Conditions
12:15 AM 33.8 °F - 32.0 °F 93% 30.15 in 10.0 mi Calm Calm - N/A   Clear
12:35 AM 32.0 °F - 30.2 °F 93% 30.15 in 10.0 mi Calm Calm - N/A   Clear
1:15 AM 32.0 °F - 30.2 °F 93% 30.15 in 10.0 mi North - - N/A   Clear
1:35 AM 32.0 °F - 30.2 °F 93% 30.15 in 10.0 mi North - - N/A   Clear
1:55 AM 32.0 °F - 30.2 °F 93% 30.15 in 10.0 mi Calm Calm - N/A   Clear
2:15 AM 32.0 °F - 30.2 °F 93% 30.14 in 10.0 mi Calm Calm - N/A   Clear
2:35 AM 32.0 °F - 30.2 °F 93% 30.14 in 10.0 mi Calm Calm - N/A   Clear
2:55 AM 32.0 °F 28.7 °F 30.2 °F 93% 30.14 in 10.0 mi South 3.5 mph - N/A   Clear
3:15 AM 32.0 °F - 30.2 °F 93% 30.13 in 10.0 mi Calm Calm - N/A   Clear
3:35 AM 32.0 °F - 28.4 °F 87% 30.13 in 10.0 mi Calm Calm - N/A   Clear
3:55 AM 30.2 °F - 28.4 °F 93% 30.14 in 10.0 mi Calm Calm - N/A   Clear
4:15 AM 32.0 °F - 30.2 °F 93% 30.14 in 10.0 mi Calm Calm - N/A   Clear
4:35 AM 30.2 °F - 28.4 °F 93% 30.14 in 10.0 mi Calm Calm - N/A   Clear
4:55 AM 30.2 °F - 28.4 °F 93% 30.13 in 10.0 mi Calm Calm - N/A   Clear
5:15 AM 30.2 °F - 28.4 °F 93% 30.13 in 10.0 mi Calm Calm - N/A   Clear
5:35 AM 30.2 °F - 28.4 °F 93% 30.13 in 10.0 mi Calm Calm - N/A   Clear
5:55 AM 28.4 °F - 26.6 °F 93% 30.12 in 10.0 mi Calm Calm - N/A   Clear
6:15 AM 28.4 °F - 28.4 °F 100% 30.12 in 10.0 mi Calm Calm - N/A   Clear
6:35 AM 28.4 °F - 26.6 °F 93% 30.12 in 10.0 mi Calm Calm - N/A   Clear
6:55 AM 30.2 °F - 28.4 °F 93% 30.12 in 10.0 mi Calm Calm - N/A   Clear
7:15 AM 28.4 °F - 26.6 °F 93% 30.12 in 10.0 mi Calm Calm - N/A   Clear
7:35 AM 28.4 °F - 28.4 °F 100% 30.12 in 10.0 mi Calm Calm - N/A   Clear
7:55 AM 28.4 °F - 26.6 °F 93% 30.12 in 10.0 mi Calm Calm - N/A   Clear
8:15 AM 32.0 °F - 30.2 °F 93% 30.12 in 10.0 mi Calm Calm - N/A   Clear
8:35 AM 32.0 °F - 30.2 °F 93% 30.13 in 10.0 mi Calm Calm - N/A   Clear
8:55 AM 35.6 °F - 30.2 °F 81% 30.13 in 10.0 mi Calm Calm - N/A   Clear
9:15 AM 37.4 °F - 32.0 °F 81% 30.13 in 10.0 mi Calm Calm - N/A   Clear
9:35 AM 37.4 °F 33.8 °F 32.0 °F 81% 30.13 in 10.0 mi North 4.6 mph - N/A   Clear
9:55 AM 39.2 °F 37.0 °F 33.8 °F 81% 30.12 in 10.0 mi NW 3.5 mph - N/A   Clear
10:15 AM 42.8 °F - 33.8 °F 70% 30.11 in 10.0 mi Calm Calm - N/A   Clear
10:55 AM 48.2 °F - 33.8 °F 58% 30.10 in 10.0 mi North 3.5 mph - N/A   Clear
11:15 AM 51.8 °F - 33.8 °F 50% 30.09 in 10.0 mi Calm Calm - N/A   Clear
11:35 AM 53.6 °F - 33.8 °F 47% 30.08 in 10.0 mi WNW 3.5 mph - N/A   Clear
11:55 AM 55.4 °F - 33.8 °F 44% 30.07 in 10.0 mi Calm Calm - N/A   Clear
12:15 PM 59.0 °F - 33.8 °F 39% 30.06 in 10.0 mi Calm Calm - N/A   Clear
12:35 PM 62.6 °F - 33.8 °F 34% 30.05 in 10.0 mi SSW 4.6 mph - N/A   Clear
12:55 PM 64.4 °F - 32.0 °F 30% 30.05 in 10.0 mi South 11.5 mph 16.1 mph N/A   Clear
1:15 PM 64.4 °F - 30.2 °F 28% 30.04 in 10.0 mi SSE 9.2 mph 18.4 mph N/A   Clear
1:35 PM 66.2 °F - 30.2 °F 26% 30.03 in 10.0 mi SSW 16.1 mph 20.7 mph N/A   Clear
2:15 PM 68.0 °F - 30.2 °F 24% 30.01 in 10.0 mi SSW 13.8 mph 19.6 mph N/A   Clear
2:35 PM 68.0 °F - 28.4 °F 23% 30.00 in 10.0 mi South 11.5 mph 18.4 mph N/A   Clear
2:55 PM 68.0 °F - 30.2 °F 24% 30.00 in 10.0 mi South 15.0 mph 19.6 mph N/A   Clear
3:15 PM 68.0 °F - 32.0 °F 26% 30.00 in 10.0 mi SW 15.0 mph 23.0 mph N/A   Clear
3:35 PM 68.0 °F - 30.2 °F 24% 29.99 in 10.0 mi SSW 15.0 mph 19.6 mph N/A   Clear
3:55 PM 68.0 °F - 30.2 °F 24% 29.98 in 10.0 mi South 10.4 mph 20.7 mph N/A   Clear
4:15 PM 69.8 °F - 30.2 °F 23% 29.98 in 10.0 mi South 13.8 mph 17.3 mph N/A   Clear
4:35 PM 68.0 °F - 28.4 °F 23% 29.97 in 10.0 mi SSE 16.1 mph - N/A   Clear
4:55 PM 68.0 °F - 28.4 °F 23% 29.97 in 10.0 mi SSE 10.4 mph 21.9 mph N/A   Clear
5:15 PM 69.8 °F - 30.2 °F 23% 29.96 in 10.0 mi South 9.2 mph 17.3 mph N/A   Clear
5:35 PM 68.0 °F - 30.2 °F 24% 29.96 in 10.0 mi SSW 11.5 mph 17.3 mph N/A   Clear
5:55 PM 68.0 °F - 30.2 °F 24% 29.96 in 10.0 mi SW 8.1 mph - N/A   Clear
6:15 PM 66.2 °F - 32.0 °F 28% 29.96 in 10.0 mi SSW 8.1 mph - N/A   Clear
6:35 PM 62.6 °F - 35.6 °F 37% 29.96 in 10.0 mi SSW 5.8 mph - N/A   Clear
6:55 PM 60.8 °F - 33.8 °F 36% 29.96 in 10.0 mi South 4.6 mph - N/A   Clear
7:15 PM 60.8 °F - 32.0 °F 34% 29.97 in 10.0 mi SSE 4.6 mph - N/A   Clear
7:35 PM 55.4 °F - 32.0 °F 41% 29.97 in 10.0 mi Calm Calm - N/A   Clear
7:55 PM 53.6 °F - 32.0 °F 44% 29.98 in 10.0 mi Calm Calm - N/A   Clear
8:15 PM 50.0 °F - 33.8 °F 54% 29.98 in 10.0 mi Calm Calm - N/A   Clear
8:35 PM 46.4 °F - 33.8 °F 62% 29.98 in 10.0 mi Calm Calm - N/A   Clear
8:55 PM 44.6 °F 42.2 °F 33.8 °F 66% 29.98 in 10.0 mi WSW 4.6 mph - N/A   Clear
9:15 PM 44.6 °F 43.1 °F 33.8 °F 66% 29.98 in 10.0 mi South 3.5 mph - N/A   Clear
9:35 PM 42.8 °F - 33.8 °F 70% 29.97 in 10.0 mi Calm Calm - N/A   Clear
9:55 PM 42.8 °F - 32.0 °F 66% 29.96 in 10.0 mi Calm Calm - N/A   Clear
10:15 PM 41.0 °F 36.4 °F 33.8 °F 76% 29.96 in 10.0 mi South 6.9 mph - N/A   Clear
10:35 PM 41.0 °F 39.0 °F 33.8 °F 76% 29.96 in 10.0 mi SSE 3.5 mph - N/A   Clear
10:55 PM 42.8 °F - 32.0 °F 66% 29.96 in 10.0 mi Calm Calm - N/A   Clear
11:15 PM 41.0 °F 39.0 °F 32.0 °F 70% 29.95 in 10.0 mi South 3.5 mph - N/A   Clear
11:35 PM 42.8 °F - 32.0 °F 66% 29.95 in 10.0 mi Calm Calm - N/A   Clear
11:55 PM 37.4 °F - 32.0 °F 81% 29.95 in 10.0 mi Calm Calm - N/A   Clear